• In Hungary
  • List of Countries
  • For 7 days
  • Water Temperature
  • Satellite Maps
  • Weather Map
  • News
  • Weather Widgets
  • user-avatar
    Login

    Hourly Weather Zaovrazhe

    Today, 26 May, Saturday

    Time Temperature Precipitation Wind Pressure Humidity
    00:00 +9°C° 0 mm 1 mps 751 mmHg 72%
    01:00 +8°C° 0 mm 1 mps 751 mmHg 72%
    02:00 +7°C° 0 mm 1 mps 751 mmHg 74%
    03:00 +8°C° 0 mm 1 mps 752 mmHg 73%
    04:00 +9°C° 0 mm 1 mps 752 mmHg 71%
    05:00 +9°C° 0 mm 1 mps 752 mmHg 69%
    06:00 +12°C° 0 mm 1 mps 752 mmHg 63%
    07:00 +14°C° 0 mm 1 mps 753 mmHg 56%
    08:00 +16°C° 0 mm 1 mps 753 mmHg 48%
    09:00 +18°C° 0 mm 1 mps 753 mmHg 45%
    10:00 +19°C° 0 mm 2 mps 753 mmHg 42%
    11:00 +20°C° 0 mm 2 mps 753 mmHg 38%
    12:00 +20°C° 0 mm 2 mps 752 mmHg 38%
    13:00 +21°C° 0 mm 2 mps 752 mmHg 37%
    14:00 +21°C° 0 mm 2 mps 752 mmHg 37%
    15:00 +21°C° 0 mm 2 mps 751 mmHg 39%
    16:00 +21°C° 0 mm 2 mps 751 mmHg 42%
    17:00 +20°C° 0 mm 2 mps 751 mmHg 44%
    18:00 +18°C° 0 mm 2 mps 750 mmHg 53%
    19:00 +16°C° 0 mm 2 mps 750 mmHg 62%
    20:00 +14°C° 0 mm 2 mps 750 mmHg 70%
    21:00 +13°C° 0 mm 2 mps 750 mmHg 72%
    22:00 +13°C° 0 mm 2 mps 750 mmHg 73%
    23:00 +12°C° 0 mm 2 mps 750 mmHg 75%

    Tomorrow, 27 May, Sunday

    Time Temperature Precipitation Wind Pressure Humidity
    00:00 +12°C° 0 mm 2 mps 750 mmHg 76%
    01:00 +10°C° 0 mm 3 mps 750 mmHg 78%
    02:00 +10°C° 0 mm 3 mps 750 mmHg 79%
    03:00 +11°C° 0 mm 3 mps 750 mmHg 79%
    04:00 +11°C° 0 mm 3 mps 749 mmHg 78%
    05:00 +11°C° 0 mm 3 mps 749 mmHg 77%
    06:00 +13°C° 0 mm 3 mps 749 mmHg 72%
    07:00 +15°C° 0 mm 4 mps 749 mmHg 66%
    08:00 +18°C° 0 mm 4 mps 749 mmHg 60%
    09:00 +19°C° 0 mm 4 mps 748 mmHg 56%
    10:00 +21°C° 0 mm 4 mps 748 mmHg 53%
    11:00 +22°C° 0 mm 4 mps 747 mmHg 49%
    12:00 +22°C° 0 mm 4 mps 747 mmHg 48%
    13:00 +23°C° 0 mm 4 mps 747 mmHg 47%
    14:00 +23°C° 0 mm 4 mps 746 mmHg 47%
    15:00 +23°C° 0.1 mm 4 mps 746 mmHg 52%
    16:00 +22°C° 0.1 mm 3 mps 746 mmHg 56%
    17:00 +21°C° 0.1 mm 3 mps 745 mmHg 61%
    18:00 +19°C° 0.1 mm 3 mps 746 mmHg 64%
    19:00 +17°C° 0.1 mm 3 mps 746 mmHg 66%
    20:00 +14°C° 0.1 mm 3 mps 746 mmHg 69%
    21:00 +13°C° 0 mm 3 mps 747 mmHg 68%
    22:00 +12°C° 0 mm 2 mps 747 mmHg 67%
    23:00 +10°C° 0 mm 2 mps 748 mmHg 67%

    Day after tomorrow, 28 May, Monday

    Time Temperature Precipitation Wind Pressure Humidity
    00:00 +9°C° 0 mm 2 mps 748 mmHg 65%
    01:00 +8°C° 0 mm 2 mps 749 mmHg 64%
    02:00 +7°C° 0 mm 2 mps 749 mmHg 63%
    03:00 +7°C° 0 mm 2 mps 750 mmHg 62%
    04:00 +7°C° 0 mm 2 mps 750 mmHg 60%
    05:00 +8°C° 0 mm 2 mps 751 mmHg 59%
    06:00 +9°C° 0 mm 2 mps 751 mmHg 53%
    07:00 +12°C° 0 mm 2 mps 751 mmHg 47%
    08:00 +14°C° 0 mm 2 mps 752 mmHg 42%
    09:00 +15°C° 0 mm 2 mps 752 mmHg 38%
    10:00 +17°C° 0 mm 2 mps 752 mmHg 34%
    11:00 +18°C° 0 mm 2 mps 752 mmHg 31%
    12:00 +18°C° 0 mm 2 mps 752 mmHg 30%
    13:00 +19°C° 0 mm 2 mps 752 mmHg 29%
    14:00 +20°C° 0 mm 2 mps 752 mmHg 29%
    15:00 +19°C° 0 mm 2 mps 751 mmHg 31%
    16:00 +19°C° 0 mm 2 mps 751 mmHg 33%
    17:00 +20°C° 0 mm 1 mps 751 mmHg 35%
    18:00 +18°C° 0 mm 1 mps 751 mmHg 42%
    19:00 +15°C° 0 mm 1 mps 751 mmHg 50%
    20:00 +11°C° 0 mm 0 mps 751 mmHg 57%
    21:00 +12°C° 0 mm 1 mps 751 mmHg 58%
    22:00 +11°C° 0 mm 1 mps 751 mmHg 59%
    23:00 +10°C° 0 mm 1 mps 751 mmHg 60%

    29 May, Tuesday

    Time Temperature Precipitation Wind Pressure Humidity
    00:00 +10°C° 0 mm 1 mps 751 mmHg 62%
    01:00 +8°C° 0 mm 2 mps 751 mmHg 64%
    02:00 +8°C° 0 mm 2 mps 751 mmHg 66%
    03:00 +9°C° 0 mm 2 mps 751 mmHg 66%
    04:00 +9°C° 0 mm 2 mps 751 mmHg 66%
    05:00 +10°C° 0 mm 2 mps 751 mmHg 66%
    06:00 +13°C° 0 mm 2 mps 750 mmHg 60%
    07:00 +14°C° 0 mm 3 mps 750 mmHg 54%
    08:00 +18°C° 0 mm 3 mps 750 mmHg 47%
    09:00 +19°C° 0 mm 3 mps 749 mmHg 44%
    10:00 +21°C° 0 mm 3 mps 749 mmHg 41%
    11:00 +22°C° 0 mm 3 mps 749 mmHg 38%
    12:00 +24°C° 0 mm 3 mps 748 mmHg 38%
    13:00 +23°C° 0 mm 4 mps 747 mmHg 37%
    14:00 +25°C° 0 mm 4 mps 747 mmHg 37%
    15:00 +25°C° 0 mm 4 mps 746 mmHg 40%
    16:00 +23°C° 0 mm 4 mps 745 mmHg 43%
    17:00 +24°C° 0 mm 3 mps 745 mmHg 46%
    18:00 +21°C° 0 mm 3 mps 744 mmHg 55%
    19:00 +19°C° 0 mm 3 mps 744 mmHg 64%
    20:00 +17°C° 0 mm 2 mps 743 mmHg 72%
    21:00 +16°C° 0 mm 2 mps 743 mmHg 75%
    22:00 +15°C° 0 mm 2 mps 742 mmHg 78%
    23:00 +15°C° 0 mm 2 mps 742 mmHg 81%

    30 May, Wednesday

    Time Temperature Precipitation Wind Pressure Humidity
    00:00 +13°C° 0 mm 3 mps 742 mmHg 81%
    01:00 +13°C° 0 mm 3 mps 741 mmHg 81%
    02:00 +13°C° 0 mm 3 mps 741 mmHg 82%
    03:00 +13°C° 0.1 mm 3 mps 740 mmHg 82%
    04:00 +14°C° 0.1 mm 3 mps 740 mmHg 82%
    05:00 +14°C° 0.1 mm 4 mps 739 mmHg 82%
    06:00 +17°C° 0 mm 4 mps 739 mmHg 75%
    07:00 +19°C° 0 mm 5 mps 738 mmHg 68%
    08:00 +21°C° 0 mm 6 mps 738 mmHg 61%
    09:00 +22°C° 0 mm 7 mps 737 mmHg 57%
    10:00 +23°C° 0 mm 7 mps 737 mmHg 53%
    11:00 +23°C° 0 mm 7 mps 737 mmHg 48%
    12:00 +23°C° 0 mm 7 mps 736 mmHg 45%
    13:00 +23°C° 0 mm 7 mps 736 mmHg 42%
    14:00 +23°C° 0 mm 7 mps 736 mmHg 39%
    15:00 +22°C° 0 mm 7 mps 736 mmHg 40%
    16:00 +22°C° 0 mm 6 mps 736 mmHg 41%
    17:00 +21°C° 0 mm 6 mps 736 mmHg 42%
    18:00 +19°C° 0 mm 5 mps 736 mmHg 49%
    19:00 +17°C° 0 mm 4 mps 737 mmHg 56%
    20:00 +14°C° 0 mm 3 mps 737 mmHg 63%
    21:00 +13°C° 0 mm 3 mps 737 mmHg 65%
    22:00 +12°C° 0 mm 3 mps 737 mmHg 67%
    23:00 +11°C° 0 mm 3 mps 736 mmHg 70%

    31 May, Thursday

    Time Temperature Precipitation Wind Pressure Humidity
    00:00 +10°C° 0 mm 3 mps 736 mmHg 73%
    01:00 +10°C° 0 mm 2 mps 736 mmHg 76%
    02:00 +9°C° 0 mm 2 mps 735 mmHg 79%
    03:00 +9°C° 0.1 mm 3 mps 736 mmHg 79%
    04:00 +8°C° 0.1 mm 4 mps 736 mmHg 79%
    05:00 +9°C° 0.1 mm 5 mps 736 mmHg 79%
    06:00 +9°C° 0 mm 6 mps 736 mmHg 73%
    07:00 +9°C° 0 mm 6 mps 737 mmHg 67%
    08:00 +9°C° 0 mm 6 mps 738 mmHg 61%
    09:00 +9°C° 0 mm 6 mps 738 mmHg 59%
    10:00 +10°C° 0 mm 6 mps 738 mmHg 57%
    11:00 +10°C° 0 mm 6 mps 739 mmHg 55%
    12:00 +13°C° 0 mm 5 mps 739 mmHg 52%
    13:00 +14°C° 0 mm 5 mps 739 mmHg 49%
    14:00 +15°C° 0 mm 5 mps 740 mmHg 46%
    15:00 +14°C° 0.1 mm 4 mps 740 mmHg 49%
    16:00 +14°C° 0.1 mm 4 mps 740 mmHg 51%
    17:00 +13°C° 0.1 mm 4 mps 740 mmHg 53%
    18:00 +12°C° 0 mm 3 mps 741 mmHg 58%
    19:00 +11°C° 0 mm 3 mps 741 mmHg 64%
    20:00 +9°C° 0 mm 2 mps 741 mmHg 69%
    21:00 +8°C° 0 mm 2 mps 742 mmHg 68%
    22:00 +7°C° 0 mm 2 mps 742 mmHg 68%
    23:00 +5°C° 0 mm 3 mps 742 mmHg 67%
    Show more